Погода в Дублине

Ирландия     53°22′57″N   6°12′23″W
темп.,
°C
ветер,
м/с
пор.,
м/с
влажн.,
%
обл.,
%
осадки,
мм/ч
давл.,
гПа
погр.,
м
29 июня, ср
ср2901:00+12ю348796 0.3 100664
04:00+10юз359196 0.0 100696
07:00+12юз3785100 0.1 1006317
10:00+15зюз457452 0.1 1007909
13:00+16ююв446791 0.6 1007800
16:00+16юв457684 0.8 1007400
19:00+16з347999 3.2 1007612
22:00+12з4894100 1.6 1008224
30 июня, чт
чт3001:00+11з4896100 1.9 1009246
04:00+10з4797100 0.3 1008246
07:00+10зюз479690 0.6 1009286
10:00+14з568165 0.0 1010790
13:00+16з346494 0.4 10101356
16:00+18зюз236238 0.9 10101176
19:00+16з468338 2.8 1011448
22:00+12з489261 1.9 1012154
1 июля, пт
пт101:00+10з489768 1.9 1013181
04:00+9зюз489845 0.0 1013185
07:00+10зюз5897100 0.0 1013260
10:00+13зюз5783100 0.0 1014728
13:00+17ююз466499 0.3 10131447
16:00+16зюз586912 0.4 1012965
19:00+17ююз586995 0.4 10121024
22:00+13ююз5109153 0.3 1012325
2 июля, сб
сб201:00+11зюз6119396 1.0 1013464
04:00+9юз511947 0.0 1013315
07:00+11юз61190100 0.1 1013456
10:00+14зюз687167 0.3 10141018
13:00+15зюз686690 0.6 10141053
16:00+17зсз676999 0.5 10151162
19:00+16з587752 1.1 1016728
22:00+13з510937 0.7 1019395
3 июля, вс
вс301:00+10з499714 0.7 1020213
04:00+9з599832 0.0 1021272
07:00+9з599687 0.0 1023305
10:00+14зсз5677100 0.0 1024979
13:00+14з676986 0.1 10241080
16:00+16зюз6765100 0.0 1023943
19:00+17з57685 0.0 10231074
22:00+12зюз410825 0.0 1023240